星链-34762 (STARLINK-34762)

导读

STARLINK-34762是美国太空探索技术公司(SpaceX)星链互联网卫星星座中的一颗卫星,于2025年9月3日在美国发射升空,归属星链项目低轨通信组网计划,星链系统旨在为全球用户提供高速宽带互联网服务,这颗卫星入轨后将提升星座网络覆盖密度,增强星链系统服务能力。

基本信息
目录编号:
65473
目录名称:
STARLINK-34762
国际标识:
2025-195R
轨道中心:
EARTH
卫星名称:
星链-34762
卫星全名:
星链-34762 (STARLINK-34762)
卫星状态:
在轨 (已飞行366 天)
发射日期:
2025-09-03 UTC
国别 :
美国 (US)
星等 :
--
轨道信息
数据来源 国际轨道数据 AOE轨道数据
星历时间 2026-09-04T02:01:19+0800
11小时前
查看轨道信息
2026-08-31T18:00:00+0800
3天前
查看轨道信息
半长轴 6840.826km 6840.878km
偏心率 0.0001242 0.0001747
轨道倾角 53.157° 53.160°
近地点辐角 94.492° 106.674°
升交点赤经 147.704° 163.290°
平近点角 265.623° 185.441°
近地点 461.839km 461.545km
远地点 463.539km 463.937km
周期 93.847分钟 93.849分钟
每日圈数 15.344048 15.343873
详细信息
固有亮度:
5
最大亮度:
2.5
卫星平台:
Starlink V1.0
覆盖范围:
全球
运营商:
太空探索技术公司
运营商所在国:
美国
制造商(研发单位):
太空探索技术公司
制造商所在国:
美国
使用方式:
暂无
卫星简介
Starlink 计划是 SpaceX 推出的全球卫星互联网项目,通过发射低轨道卫星,为全球尤其是偏远地区提供高速、低延迟的互联网服务。自 2019 年起,Starlink 已部署数千颗卫星,旨在缩小全球数字鸿沟,推动互联网普及。该项目还为军事、航空等行业提供通信支持,带来广泛经济效益。
2D轨道图
3D轨道图
轨道高度分析图
轨道倾角分析图
轨道综合分析图
查看轨道综合分析图
交会数据列表
事件ID 空间交会对象 最接近时刻(TCA) 交会距离 交会风险概率(CRP) 交会风险指数(CRI) 操作
CDM_260905-100905-080606-547321
2026-09-05T
10:09:58+0000
1.087 km
极远距离
1.241727E-5 中风险 0.57
CDM_260905-114305-080606-547321
2026-09-05T
11:43:45+0000
1.918 km
极远距离
2.052563E-6 低风险 0.41